Terug naar catalogus

STARLINK-4266

ActiefCommunicatieVLEO
NORAD 52869·PAYLOAD·🇺🇸 United States

Gelanceerd Jun 17, 2022 vanaf Cape Canaveral Space Force Station

Loading…

Volgende Passages (komende 24 uur)

TLE

VersSource: CelesTrak SupGP

Epoch: Sep 15, 2026, 01:58 UTC

1 52869C 22062AR  26258.08243056 -.00030008  00000+0 -88669-3 0  2583
2 52869  53.1568 230.7521 0001201  96.3173 179.6202 15.34402398    10

Volg STARLINK-4266 in realtime met AllMySat

Download on the App Store